User: anonymous   Login
Location: Colorado Springs
(38.8340°N, 104.8210°W)
Time: 22:39:25
(UTC-07:00)
Language:

Hubble Space Telescope - Orbit

View from above orbital plane
View from above orbital plane
View from above satellite
View from above satellite

Ground track
Ground track

The orbit data is extracted from the following two-line orbital elements,

1 20580U 90037B   18023.28511281  .00000499  00000-0  19637-4 0  9998
2 20580  28.4708 352.9410 0002741  26.8934 113.0165 15.08967526323561
Epoch (UTC): 23 January 2018 06:50:33
Eccentricity: 0.0002741
inclination: 28.4708°
perigee height: 537 km
apogee height: 541 km
right ascension of ascending node: 352.9410°
argument of perigee: 26.8934°
revolutions per day: 15.08967526
mean anomaly at epoch: 113.0165°
orbit number at epoch: 32356

The dashed part of the orbit path shows where the satellite is in the earth's shadow,  

DLR